• en France
  • Liste des pays
  • À 7 jours
  • Température de l'eau
  • Carte satellitaire
  • Carte météo
  • Widgets météo
  • user-avatar
    Se connecter

    Météo par heure à Rsaevo

    Ce jour, 18 Juillet, Mercredi

    Heure Température Précipitation Vent Pression Humidité
    00:00 +20°C° 1 mm 2 m/s 748 mmHg 92%
    01:00 +20°C° 1 mm 2 m/s 748 mmHg 94%
    02:00 +20°C° 0,7 mm 3 m/s 747 mmHg 94%
    03:00 +20°C° 0,7 mm 3 m/s 747 mmHg 95%
    04:00 +20°C° 0,7 mm 4 m/s 747 mmHg 95%
    05:00 +20°C° 0,3 mm 4 m/s 747 mmHg 94%
    06:00 +20°C° 0,3 mm 4 m/s 747 mmHg 93%
    07:00 +21°C° 0,3 mm 5 m/s 747 mmHg 92%
    08:00 +22°C° 0 mm 5 m/s 747 mmHg 88%
    09:00 +23°C° 0 mm 5 m/s 746 mmHg 83%
    10:00 +25°C° 0 mm 5 m/s 746 mmHg 79%
    11:00 +26°C° 0,5 mm 5 m/s 746 mmHg 78%
    12:00 +26°C° 0,5 mm 5 m/s 746 mmHg 76%
    13:00 +27°C° 0,5 mm 5 m/s 746 mmHg 75%
    14:00 +27°C° 1 mm 4 m/s 746 mmHg 77%
    15:00 +26°C° 1 mm 4 m/s 746 mmHg 78%
    16:00 +26°C° 1 mm 4 m/s 746 mmHg 80%
    17:00 +26°C° 0,5 mm 4 m/s 746 mmHg 83%
    18:00 +25°C° 0,5 mm 3 m/s 746 mmHg 85%
    19:00 +25°C° 0,5 mm 3 m/s 746 mmHg 87%
    20:00 +24°C° 0,7 mm 3 m/s 746 mmHg 90%
    21:00 +22°C° 0,7 mm 3 m/s 746 mmHg 92%
    22:00 +21°C° 0,7 mm 3 m/s 746 mmHg 94%
    23:00 +20°C° 0,3 mm 3 m/s 746 mmHg 95%

    Demain, 19 Juillet, Jeudi

    Heure Température Précipitation Vent Pression Humidité
    00:00 +20°C° 0,3 mm 3 m/s 746 mmHg 96%
    01:00 +19°C° 0,3 mm 3 m/s 746 mmHg 97%
    02:00 +19°C° 0,3 mm 2 m/s 746 mmHg 97%
    03:00 +18°C° 0,3 mm 2 m/s 746 mmHg 97%
    04:00 +18°C° 0,3 mm 2 m/s 746 mmHg 97%
    05:00 +19°C° 0 mm 2 m/s 746 mmHg 95%
    06:00 +20°C° 0 mm 2 m/s 746 mmHg 93%
    07:00 +21°C° 0 mm 1 m/s 746 mmHg 91%
    08:00 +23°C° 0,3 mm 1 m/s 746 mmHg 88%
    09:00 +24°C° 0,3 mm 1 m/s 746 mmHg 84%
    10:00 +25°C° 0,3 mm 1 m/s 746 mmHg 80%
    11:00 +26°C° 0,7 mm 1 m/s 746 mmHg 76%
    12:00 +27°C° 0,7 mm 1 m/s 747 mmHg 73%
    13:00 +27°C° 0,7 mm 1 m/s 747 mmHg 70%
    14:00 +28°C° 0,2 mm 1 m/s 747 mmHg 68%
    15:00 +28°C° 0,2 mm 1 m/s 747 mmHg 66%
    16:00 +28°C° 0,2 mm 1 m/s 747 mmHg 64%
    17:00 +28°C° 0,5 mm 1 m/s 747 mmHg 69%
    18:00 +27°C° 0,5 mm 1 m/s 747 mmHg 73%
    19:00 +27°C° 0,5 mm 1 m/s 747 mmHg 78%
    20:00 +25°C° 0,5 mm 1 m/s 747 mmHg 81%
    21:00 +24°C° 0,5 mm 1 m/s 747 mmHg 84%
    22:00 +22°C° 0,5 mm 1 m/s 747 mmHg 87%
    23:00 +22°C° 0,5 mm 1 m/s 747 mmHg 88%

    Après-demain, 20 Juillet, Vendredi

    Heure Température Précipitation Vent Pression Humidité
    00:00 +22°C° 0,5 mm 1 m/s 748 mmHg 89%
    01:00 +21°C° 0,5 mm 1 m/s 748 mmHg 90%
    02:00 +21°C° 0 mm 1 m/s 748 mmHg 91%
    03:00 +21°C° 0 mm 1 m/s 748 mmHg 92%
    04:00 +20°C° 0 mm 1 m/s 748 mmHg 93%
    05:00 +21°C° 0,1 mm 1 m/s 748 mmHg 92%
    06:00 +22°C° 0,1 mm 1 m/s 748 mmHg 91%
    07:00 +23°C° 0,1 mm 1 m/s 749 mmHg 89%
    08:00 +24°C° 0,6 mm 1 m/s 749 mmHg 87%
    09:00 +24°C° 0,6 mm 2 m/s 749 mmHg 84%
    10:00 +25°C° 0,6 mm 2 m/s 749 mmHg 82%
    11:00 +26°C° 0,9 mm 3 m/s 749 mmHg 80%
    12:00 +26°C° 0,9 mm 3 m/s 749 mmHg 79%
    13:00 +27°C° 0,9 mm 3 m/s 749 mmHg 78%
    14:00 +27°C° 0,5 mm 3 m/s 749 mmHg 77%
    15:00 +27°C° 0,5 mm 3 m/s 749 mmHg 77%
    16:00 +27°C° 0,5 mm 3 m/s 749 mmHg 76%
    17:00 +26°C° 0,6 mm 3 m/s 749 mmHg 80%
    18:00 +25°C° 0,6 mm 3 m/s 749 mmHg 84%
    19:00 +25°C° 0,6 mm 3 m/s 749 mmHg 87%
    20:00 +24°C° 0 mm 3 m/s 749 mmHg 90%
    21:00 +21°C° 0 mm 3 m/s 749 mmHg 92%
    22:00 +20°C° 0 mm 3 m/s 750 mmHg 95%
    23:00 +20°C° 0,1 mm 4 m/s 750 mmHg 95%

    21 Juillet, Samedi

    Heure Température Précipitation Vent Pression Humidité
    00:00 +20°C° 0,1 mm 4 m/s 750 mmHg 95%
    01:00 +19°C° 0,1 mm 4 m/s 750 mmHg 96%
    02:00 +19°C° 0,3 mm 4 m/s 750 mmHg 96%
    03:00 +19°C° 0,3 mm 4 m/s 750 mmHg 96%
    04:00 +19°C° 0,3 mm 5 m/s 750 mmHg 96%
    05:00 +19°C° 0,5 mm 5 m/s 750 mmHg 95%
    06:00 +19°C° 0,5 mm 5 m/s 751 mmHg 94%
    07:00 +19°C° 0,5 mm 5 m/s 751 mmHg 93%
    08:00 +20°C° 0,2 mm 5 m/s 751 mmHg 91%
    09:00 +21°C° 0,2 mm 6 m/s 751 mmHg 88%
    10:00 +21°C° 0,2 mm 6 m/s 751 mmHg 86%
    11:00 +22°C° 0,2 mm 5 m/s 751 mmHg 84%
    12:00 +23°C° 0,2 mm 5 m/s 751 mmHg 82%
    13:00 +23°C° 0,2 mm 5 m/s 751 mmHg 80%
    14:00 +25°C° 0,2 mm 5 m/s 751 mmHg 79%
    15:00 +25°C° 0,2 mm 5 m/s 751 mmHg 79%
    16:00 +25°C° 0,2 mm 5 m/s 751 mmHg 79%
    17:00 +25°C° 0,5 mm 5 m/s 751 mmHg 81%
    18:00 +23°C° 0,5 mm 4 m/s 751 mmHg 83%
    19:00 +22°C° 0,5 mm 4 m/s 751 mmHg 85%
    20:00 +21°C° 0,2 mm 4 m/s 752 mmHg 86%
    21:00 +21°C° 0,2 mm 5 m/s 752 mmHg 86%
    22:00 +20°C° 0,2 mm 5 m/s 752 mmHg 87%
    23:00 +20°C° 0,3 mm 5 m/s 752 mmHg 87%

    22 Juillet, Dimanche

    Heure Température Précipitation Vent Pression Humidité
    00:00 +19°C° 0,3 mm 5 m/s 752 mmHg 87%
    01:00 +19°C° 0,3 mm 5 m/s 752 mmHg 87%
    02:00 +17°C° 0,4 mm 5 m/s 752 mmHg 87%
    03:00 +17°C° 0,4 mm 5 m/s 752 mmHg 87%
    04:00 +17°C° 0,4 mm 5 m/s 752 mmHg 87%
    05:00 +17°C° 0,2 mm 5 m/s 752 mmHg 87%
    06:00 +17°C° 0,2 mm 5 m/s 753 mmHg 87%
    07:00 +17°C° 0,2 mm 5 m/s 753 mmHg 87%
    08:00 +19°C° 0 mm 6 m/s 753 mmHg 84%
    09:00 +20°C° 0 mm 6 m/s 753 mmHg 80%
    10:00 +21°C° 0 mm 6 m/s 753 mmHg 77%
    11:00 +22°C° 0 mm 6 m/s 753 mmHg 74%
    12:00 +23°C° 0 mm 6 m/s 753 mmHg 71%
    13:00 +23°C° 0 mm 6 m/s 753 mmHg 68%
    14:00 +24°C° 0 mm 6 m/s 753 mmHg 68%
    15:00 +25°C° 0 mm 5 m/s 752 mmHg 67%
    16:00 +25°C° 0 mm 5 m/s 752 mmHg 66%
    17:00 +25°C° 0 mm 5 m/s 752 mmHg 69%
    18:00 +23°C° 0 mm 5 m/s 752 mmHg 72%
    19:00 +22°C° 0 mm 4 m/s 752 mmHg 74%
    20:00 +21°C° 0 mm 4 m/s 753 mmHg 74%
    21:00 +19°C° 0 mm 5 m/s 753 mmHg 74%
    22:00 +17°C° 0 mm 5 m/s 753 mmHg 74%
    23:00 +17°C° 0 mm 4 m/s 753 mmHg 75%

    23 Juillet, Lundi

    Heure Température Précipitation Vent Pression Humidité
    00:00 +17°C° 0 mm 4 m/s 754 mmHg 75%
    01:00 +15°C° 0 mm 4 m/s 754 mmHg 76%
    02:00 +14°C° 0 mm 4 m/s 754 mmHg 78%
    03:00 +13°C° 0 mm 4 m/s 754 mmHg 79%
    04:00 +13°C° 0 mm 4 m/s 754 mmHg 81%
    05:00 +14°C° 0 mm 4 m/s 755 mmHg 80%
    06:00 +14°C° 0 mm 4 m/s 755 mmHg 79%
    07:00 +15°C° 0 mm 5 m/s 755 mmHg 78%
    08:00 +16°C° 0 mm 5 m/s 755 mmHg 74%
    09:00 +19°C° 0 mm 5 m/s 755 mmHg 71%
    10:00 +20°C° 0 mm 5 m/s 755 mmHg 67%
    11:00 +21°C° 0 mm 5 m/s 755 mmHg 64%
    12:00 +22°C° 0 mm 5 m/s 754 mmHg 62%
    13:00 +22°C° 0 mm 5 m/s 754 mmHg 60%
    14:00 +23°C° 0 mm 5 m/s 754 mmHg 60%
    15:00 +23°C° 0 mm 5 m/s 754 mmHg 59%
    16:00 +23°C° 0 mm 4 m/s 754 mmHg 59%
    17:00 +23°C° 0 mm 4 m/s 754 mmHg 64%
    18:00 +22°C° 0 mm 3 m/s 754 mmHg 69%
    19:00 +22°C° 0 mm 3 m/s 754 mmHg 74%
    20:00 +20°C° 0 mm 3 m/s 754 mmHg 75%
    21:00 +19°C° 0 mm 3 m/s 754 mmHg 76%
    22:00 +17°C° 0 mm 3 m/s 754 mmHg 78%
    23:00 +17°C° 0 mm 3 m/s 755 mmHg 78%
    Voir plus